This demonstration page uses our WeatherBlox Daily Observations layout. Learn more.

Left ArrowRight Arrow

Hourly Observations for April 3, 2018

Temp ( °F °C ) Dew Point ( °F °C ) Humidity (%) Winds ( mph kmh ) Pressure ( in mb ) Visibility ( mi km ) Precip ( " mm )
12:21 am 00:21 Cloudy with Light Wintry Mix 30 -1 30 -1 100 100 E 17 28 29.68 1005 1 1 0.00 0.00
12:42 am 00:42 Cloudy with Light Wintry Mix 30 -1 30 -1 100 100 E 13 20 29.68 1005 1 2 0.00 0.03
12:56 am 00:56 Cloudy with Light Wintry Mix 31 -0.6 30 -1.1 96 96 E 12 19 29.65 1004 1 1 0.00 0.03
1:51 am 01:51 Cloudy with Mist and Fog 30 -1 30 -1 100 100 NE 13 20 29.71 1006 1 2 0.00 0.00
1:56 am 01:56 Cloudy with Mist and Fog 30 -1.1 30 -1.1 100 100 NE 13 20 29.67 1005 1 2 0.00 0.03
2:07 am 02:07 Cloudy with Mist and Fog 30 -1 30 -1 100 100 ENE 13 20 29.71 1006 1 2 0.00 0.00
2:20 am 02:20 Cloudy with Mist and Fog 30 -1 30 -1 100 100 NNE 15 24 29.71 1006 1 2 0.00 0.00
2:29 am 02:29 Cloudy with Mist and Fog 30 -1 30 -1 100 100 NNE 13 20 29.74 1007 2 2 0.00 0.00
2:45 am 02:45 Cloudy with Mist and Fog 30 -1 30 -1 100 100 N 16 26 29.77 1008 3 5 0.00 0.00
2:56 am 02:56 Cloudy with Mist and Fog 30 -1.1 30 -1.1 100 100 N 16 26 29.71 1006 3 4 0.00 0.00
3:17 am 03:17 Cloudy with Mist and Fog 30 -1 30 -1 100 100 N 18 30 29.74 1007 2 3 0.00 0.00
3:56 am 03:56 Cloudy with Mist and Fog 30 -1.1 29 -1.7 96 96 NNE 13 20 29.69 1005 3 4 0.00 0.00
4:25 am 04:25 Cloudy with Mist and Fog 30 -1 28 -2 93 93 N 17 28 29.80 1009 5 8 0.00 0.00
4:53 am 04:53 Cloudy with Mist and Fog 30 -1 30 -1 100 100 N 13 20 29.80 1009 6 10 0.00 0.00
4:56 am 04:56 Cloudy with Mist and Fog 30 -1.1 30 -1.1 100 100 N 9 15 29.74 1007 6 10 0.00 0.00
5:37 am 05:37 Cloudy 30 -1 30 -1 100 100 N 17 28 29.83 1010 8 13 0.00 0.00
5:56 am 05:56 Cloudy 31 -0.6 30 -1.1 96 96 N 15 24 29.77 1008 7 11 0.00 0.00
6:52 am 06:52 Cloudy with Light Snow 30 -1 30 -1 100 100 N 15 24 29.91 1013 6 10 0.00 0.03
6:56 am 06:56 Cloudy with Light Snow 31 -0.6 30 -1.1 96 96 N 16 26 29.82 1010 5 8 0.00 0.03
7:34 am 07:34 Cloudy 30 -1 30 -1 100 100 N 15 24 29.91 1013 8 13 0.00 0.03
7:56 am 07:56 Cloudy 32 0 30 -1.1 92 92 N 18 30 29.87 1011 10 16 0.00 0.03
8:56 am 08:56 Cloudy 29 -1.7 25 -3.9 85 85 NNW 26 43 29.94 1014 10 16 0.00 0.00
9:56 am 09:56 Cloudy 27 -2.8 22 -5.6 81 81 NNW 22 35 30.01 1016 10 16 0.00 0.00
10:09 am 10:09 Windy with Snow Likely 27 -3 21 -6 80 80 NNW 23 37 30.09 1019 10 16 0.00 0.00
10:56 am 10:56 Cloudy 28 -2.2 20 -6.7 72 72 NW 28 44 30.06 1018 10 16 0.00 0.03
11:56 am 11:56 Cloudy 28 -2.2 18 -7.8 66 66 NNW 24 39 30.11 1020 10 16 0.00 0.00
12:56 pm 12:56 Partly Cloudy 32 0 18 -7.8 56 56 NNW 32 52 30.11 1020 10 16 0.00 0.00
1:56 pm 13:56 Mostly Sunny 33 0.6 17 -8.3 52 52 NNW 25 41 30.13 1020 10 16 0.00 0.00
2:56 pm 14:56 Mostly Sunny 34 1.1 16 -8.9 48 48 NNW 25 41 30.15 1021 10 16 0.00 0.00
3:56 pm 15:56 Mostly Sunny 34 1.1 16 -8.9 48 48 NNW 25 41 30.16 1022 10 16 0.00 0.00
4:56 pm 16:56 Sunny 34 1.1 15 -9.4 46 46 NNW 23 37 30.19 1022 10 16 0.00 0.00
5:56 pm 17:56 Sunny 33 0.6 15 -9.4 47 47 NNW 20 31 30.21 1023 10 16 0.00 0.00
6:56 pm 18:56 Sunny 31 -0.6 16 -8.9 54 54 NNW 17 28 30.24 1024 10 16 0.00 0.00
7:56 pm 19:56 Sunny 29 -1.7 16 -8.9 58 58 N 14 22 30.26 1025 10 16 0.00 0.00
8:56 pm 20:56 Clear 26 -3.3 16 -8.9 66 66 N 9 15 30.27 1025 10 16 0.00 0.00
9:56 pm 21:56 Clear 22 -5.6 15 -9.4 75 75 N 8 13 30.31 1026 10 16 0.00 0.00
10:56 pm 22:56 Clear 21 -6.1 14 -10 74 74 N 13 20 30.32 1027 10 16 0.00 0.00
11:56 pm 23:56 Clear 20 -6.7 13 -10.6 74 74 N 13 20 30.32 1027 10 16 0.00 0.00

Powered by AerisWeather